Погода в Подзавалове

Россия / Орловская область     53°03′28″N   35°40′28″E
темп.,
°C
ветер,
м/с
пор.,
м/с
влажн.,
%
обл.,
%
осадки,
мм/ч
давл.,
гПа
погр.,
м
28 ноября, вс
вс2800:00+5ю6149682 0.0 1002422
03:00+6юз61191100 0.1 1003589
06:00+3юз37933 0.0 1004184
09:00+1юз38945 0.0 1006202
12:00+4зюз367764 0.0 1007312
15:00+4ююз247690 0.0 1008183
18:00+2ююв3384100 0.0 100840
21:00+2юв3896100 0.0 1008158
29 ноября, пн
пн2900:00+3юв41197100 0.0 1007257
03:00+3юв41096100 0.0 1006216
06:00+3вюв4997100 0.0 1003197
09:00+4в3899100 0.2 1000192
12:00+5вюв3899100 0.2 997287
15:00+5ю3999100 0.2 995318
18:00+6юв41198100 0.0 992366
21:00+6вюв41096100 0.1 988306
30 ноября, вт
вт3000:00+7в51098100 1.9 981303
03:00+7ссз1298100 4.0 97547
06:00+6зюз91397100 6.6 9771018
09:000зюз132297100 13.4 9821006
12:00+1зюз122092100 3.2 9861068
15:00+1зюз111784100 3.2 9881040
18:00+1юз101681100 0.0 9891308
21:00−1юз8158487 0.3 990805
1 декабря, ср
ср100:00−2зюз8148889 0.1 989918
03:00−3зюз81493100 0.3 991902
06:00−3з81393100 0.6 991999
09:00−3з81394100 1.0 994933
12:00−3з81294100 1.1 996885
15:00−3з81288100 1.4 997795
18:00−5з6128891 0.0 999611
21:00−6з5119199 0.0 1001573
2 декабря, чт
чт200:00−7з4109480 0.0 1003383
03:00−7зюз3895100 0.0 1004239
06:00−6ююз3894100 0.0 1005278
09:00−3ю61290100 0.0 1003483
12:00−1ююз81696100 1.2 1002687
15:00+1юз71598100 1.9 1001634
18:00+2юз71493100 0.1 1002508
21:00+1юз6149294 0.1 1003443